THOR ABLESTAR DEB, 48811

Orbit data source: Space-Track

THOR ABLESTAR DEB, 48811 is space debris in LEO originally from a launch on Thu, 29 Jun 1961 UTC launched from the Air Force Eastern Test Range (AFETR). Debris objects in space refer to the collection of defunct objects orbiting the Earth. Examples of debris include non-operational satellites, rocket bodies, and fragments generated from explosions, collisions, or faulty payload assembly.

Loading next visibility...
Identifier
48811, 1961-015MP
Orbit
LEO
Country
Flag of USUS
Related business
Manufacturer
Unknown
Mission
Spacecraft
Bus & Motor
Unknown
Mass
Unknown
Launch date (UTC)
1961-06-29 (65 years ago)
Launch vehicle
Unknown
Launch site
Air Force Eastern Test Range (AFETR)
Object type
Payload
Rocket body
Debris
Shape & HBR
Unknown shape, 0.1 m
Radar Cross Section
Small (<0.1 m²)

Expand to show TLE details & history
Last TLE update: 2 days ago

TLE from 2 days ago
0 THOR ABLESTAR DEB
1 48811U 61015MP  26125.30262202  .00000249  00000-0  29855-3 0  9995
2 48811  67.0589  95.6708 0101827 181.1047 178.9819 13.79863157626710
Epoch: 2026-05-05T07:15Z
TLE epoch observation values (Epoch: 2026-05-05T07:15:46.542Z)
Latitude
-0.00007°
Longitude
123.54743°
Altitude
1,041.22 km
Speed
7.294 km/s
True Right ascension
06h 22m 40s
True Declination
0° 00' 00"
Sunlit
Object was in daylight at epoch
Visualization orbit readout
Latitude
Unknown
Longitude
Unknown
Altitude
Unknown
Speed
Unknown
Apparent Right ascension
Unknown
Apparent Declination
Unknown
Sunlit
N/A
Visualization observer readout
Local Sidereal Time
13:44:15
Azimuth
Unknown
Elevation
Unknown
Doppler factor
Unknown
Orbital elements
Apogee altitude
1,037.495 km
Perigee altitude
887.995 km
Semi-major axis
7,340.882 km
Eccentricity
0.01018
Inclination
67.0589°
RAAN
95.6708°
Arg. of periapsis
181.1047°
True anomaly
179.00237°
Mean anomaly
178.9819°
Eccentric anomaly
178.99216°
Mean motion
3.45081 °/min
Orbital period
104.32 mins
BSTAR
0.00029855

Documentation

Showing up to 5 results
|